Location: Geyikbay?r?
(36.8756°N, 30.4583°E)
Time: 13:20:42
(UTC+00:00)

Cosmos 1782 - Pass Details

Date: 05 August 2024
Orbit: 503 x 513 km, 82.5° (Epoch: 11 September)

Event Time Altitude Azimuth Distance (km) Brightness Sun altitude
Rises 19:25:01 0° 347° (NNW) 2,609 7.2 -24.6°
Reaches altitude 10° 19:27:11 10° 341° (NNW) 1,721 6.2 -24.9°
Enters shadow 19:30:25 46° 290° (WNW) 682 3.5 -25.4°
